Regional Weather Roundup
Issued by NWS Cleveland, OH

Home | Current Version | Previous Version | Text Only | Print | Product List | Glossary Off
Versions: 1 2 3 4 5 6 7 8 9 10 11 12 13 14 15 16 17 18 19 20 21 22 23 24 25 26 27 28 29 30 31 32 33 34 35 36 37 38 39 40 41 42 43 44 45 46 47 48 49 50

000
ASUS41 KCLE 261902
RWRCLE
OHIO REGIONAL WEATHER ROUNDUP
NATIONAL WEATHER SERVICE CLEVELAND, OH
300 PM EDT TUE JUL 26 2016

NOTE: "FAIR" INDICATES FEW OR NO CLOUDS BELOW 12,000 FEET WITH NO
SIGNIFICANT WEATHER AND/OR OBSTRUCTIONS TO VISIBILITY.

OHZ001>008-015>018-024>027-034-035-043-044-262000-
   NORTHWEST OHIO

CITY           SKY/WX    TMP DP  RH WIND       PRES   REMARKS
DEFIANCE       MOSUNNY   86  61  42 S3        30.04F
FINDLAY        CLOUDY    85  60  42 E3        30.03F
TOLEDO EXPRESS CLOUDY    85  59  41 VRB5      30.03F
TOLEDO EXEC    MOSUNNY   84  60  44 E7        30.04F
LIMA           CLOUDY    83  66  56 N5        30.04F
$$

OHZ009>014-019>023-028>033-038-089-262000-
   NORTHEAST OHIO

CITY           SKY/WX    TMP DP  RH WIND       PRES   REMARKS
CLE-HOPKINS    MOSUNNY   84  54  35 N10       30.07F
CLE-LAKEFRONT  SUNNY     80  62  54 N8        30.05S
CUY CO. ARPT   NOT AVBL
LORAIN-ELYRIA  SUNNY     82  60  47 NE9       30.05F
ASHTABULA      SUNNY     80  59  48 VRB6      30.06F
AKRON-CANTON   PTSUNNY   86  60  41 W9        30.04F
WOOSTER        MOSUNNY   85  62  46 CALM      30.04F
MANSFIELD      SUNNY     85  62  46 VRB5      30.05F
YOUNGSTOWN     PTSUNNY   84  59  42 NW10      30.05F
$$

OHZ042-051>053-060>062-070>072-077>081-262000-
  SOUTHWEST OHIO

CITY           SKY/WX    TMP DP  RH WIND       PRES   REMARKS
CINC-COVINGTON CLOUDY    78  74  87 NE8       30.03F
CINC-LUNKEN    LGT RAIN  74  73  97 S3        30.03F
HAMILTON       CLOUDY    80  72  76 N3        30.04S
DAYTON         CLOUDY    81  68  64 W6        30.05S
WRIGHT-PAT AFB CLOUDY    82  69  64 W5        30.03F
DAYTON GENERAL LGT RAIN  77  71  82 NW6       30.04F
WILMINGTON     LGT RAIN  78  72  81 N8        30.03F
$$

OHZ036-037-039>041-045>050-054>059-063>069-073>076-082>088-262000-
  CENTRAL AND SOUTHEAST OHIO

CITY           SKY/WX    TMP DP  RH WIND       PRES   REMARKS
COLUMBUS       CLOUDY    86  66  51 N7        30.00F
OSU AIRPORT    MOSUNNY   87  67  51 N5        30.01F HX  90
BOLTON FIELD   MOSUNNY   84  70  61 S5        30.02F
RICKENBACK AFB MOSUNNY   85  69  58 CALM      30.01S
NEWARK         CLOUDY    90  64  42 VRB6      30.01F HX  91
MARION         MOSUNNY   85  62  46 N5        30.03F
LANCASTER      CLOUDY    86  70  58 VRB3      30.02F HX  90
ZANESVILLE     CLOUDY    91  67  44 VRB7      30.01F HX  94
NEW PHILLY     MOSUNNY   93  61  34 NE8       30.02F HX  93
$$




USA.gov is the U.S. government's official web portal to all federal, state and local government web resources and services.